カタログに戻る

INTELSAT 35E

運用中通信GEO
NORAD 42818·PAYLOAD· XX

打ち上げ Jul 5, 2017 から Cape Canaveral Space Force Station

Loading…

TLE

最新Source: CelesTrak SupGP

元期: Sep 14, 2026, 14:13 UTC

1 42818C 17041A   26257.59280093 -.00000175  00000+0  00000+0 0  2573
2 42818   0.0408 350.8973 0002098 182.5994 358.9883  1.00272480    18

AllMySatでINTELSAT 35Eをリアルタイム追跡

Download on the App Store